Theta_e
298 297 297 297 298 299 299 298 298 298 298 296 296 296 297 299 302 304 302 304 298 291 293 298 299 295 292 293 286 284 284 283 283 284 285 283 283 278 281 281 278 278 277 276 276 277 278 284 282 284 291 289 287 286
297 297 297 297 298 298 298 298 297 297 297 296 295 295 296 297 300 302 299 304 303 294 292 297 298 300 301 300 289 287 289 284 288 286 285 286 283 278 282 281 279 281 284 280 281 282 287 286 289 288 287 289 289 287
295 297 297 297 297 297 298 297 297 297 297 297 296 295 295 296 298 300 300 303 299 288 290 291 291 297 300 299 299 287 288 290 289 293 288 286 285 283 280 281 281 280 283 283 283 288 286 286 289 288 288 289 290 289
294 296 296 296 296 297 297 297 297 297 296 296 296 295 296 296 298 301 298 299 298 291 285 288 294 293 298 298 298 298 295 293 293 292 287 285 286 286 284 286 285 285 284 281 282 285 285 287 287 290 291 289 289 289
295 296 295 295 296 296 296 296 296 295 295 294 294 295 295 296 299 301 300 300 301 294 285 286 288 292 294 296 297 296 294 291 288 286 286 285 287 285 282 283 283 284 284 283 286 289 293 296 292 291 290 289 290 289
296 295 294 295 295 295 295 295 295 295 294 292 293 295 295 295 297 294 287 296 300 298 286 285 287 286 289 295 296 294 294 290 289 287 285 287 287 288 285 285 291 286 286 290 292 291 290 289 287 287 289 290 290 288
294 294 294 295 295 295 295 294 294 293 292 292 292 294 294 295 294 290 287 293 300 298 286 285 286 286 286 288 287 287 288 286 287 286 285 286 286 287 285 287 290 287 291 289 288 287 288 288 292 290 288 288 286 287
293 293 295 295 295 294 294 293 293 292 292 291 292 293 294 294 295 290 296 298 300 291 287 285 284 284 286 285 285 286 285 285 286 285 285 285 284 285 284 289 293 290 289 288 288 288 292 288 286 285 284 282 284 285
293 294 294 294 294 293 293 293 293 292 292 291 292 293 291 289 285 288 295 300 296 291 285 285 281 281 286 285 285 285 286 284 285 284 285 286 283 283 287 287 288 280 284 285 285 287 286 285 288 286 284 283 283 286
292 293 294 293 293 293 293 293 292 292 292 292 289 283 281 285 293 293 290 286 285 285 285 283 283 282 286 284 283 284 285 284 280 284 285 284 285 278 273 274 275 274 275 274 282 285 283 283 283 285 285 286 286 286
292 292 292 292 292 292 292 292 292 292 291 286 279 278 286 292 288 285 283 282 283 281 283 283 282 281 286 283 283 285 283 284 280 282 283 282 283 275 268 269 270 271 271 272 272 275 275 274 276 279 283 286 286 286
289 289 290 290 290 290 291 291 292 287 284 283 282 286 285 283 281 277 275 279 280 277 278 281 283 285 285 286 285 283 282 282 279 284 283 280 274 265 264 264 265 266 266 268 269 269 270 271 271 272 277 281 281 284
288 289 290 290 291 291 291 291 292 291 290 285 283 279 277 275 273 271 270 273 274 277 280 282 281 284 283 285 285 284 280 279 284 280 280 273 266 263 261 261 262 262 263 266 267 268 268 268 269 270 269 271 271 274
289 289 289 290 290 291 291 291 292 290 285 278 276 271 271 269 269 273 270 272 275 275 277 282 282 281 284 282 282 279 282 281 278 276 276 268 263 261 259 259 259 260 260 261 263 265 266 267 267 269 268 268 268 269
287 289 289 289 290 291 291 291 292 287 279 276 274 270 268 268 267 267 267 271 273 278 278 281 281 281 279 280 280 278 275 274 272 271 267 265 262 260 259 259 258 258 258 259 261 262 262 263 264 265 266 266 267 267
287 287 284 289 290 291 291 291 286 283 277 273 270 268 267 266 268 267 272 276 277 278 280 280 279 278 275 275 271 269 271 268 268 265 264 263 261 260 259 259 258 258 259 259 260 261 262 261 262 263 264 265 264 265
288 276 286 289 290 291 291 283 281 277 275 272 269 264 266 265 270 268 268 274 277 277 276 276 273 271 275 271 270 272 268 267 264 262 262 261 259 258 258 258 259 260 259 259 259 260 260 261 261 262 262 263 264 265
275 284 288 291 287 285 277 275 274 274 269 268 269 267 267 266 271 272 273 272 273 273 276 275 275 272 271 269 270 268 264 263 263 262 260 260 259 258 259 259 259 259 260 260 261 262 261 261 262 262 261 262 263 264
282 286 288 287 284 277 274 270 270 268 266 265 266 268 271 269 269 269 267 265 263 267 273 272 271 270 271 266 266 262 263 263 263 261 260 259 259 258 258 258 258 259 259 259 260 261 262 262 262 263 263 264 264 264
286 285 283 281 280 270 267 266 263 267 266 265 265 265 266 266 264 258 257 256 260 263 267 264 265 261 261 256 256 258 258 258 259 260 259 259 258 257 257 256 257 257 258 258 259 259 260 262 262 262 263 264 264 264
278 276 277 271 265 261 256 253 259 258 261 263 262 263 261 258 254 254 254 253 261 254 257 250 250 251 249 250 252 253 253 255 255 256 257 256 257 256 257 256 256 256 256 256 257 258 258 259 260 261 262 264 265 265
264 275 265 266 263 260 257 253 256 257 259 259 257 254 253 256 252 250 250 256 252 248 248 248 248 248 248 249 249 248 247 247 247 252 252 253 255 255 255 254 254 254 255 255 256 256 257 259 260 261 262 263 264 265
268 265 258 259 261 259 256 253 258 253 258 256 254 254 250 249 249 250 253 246 246 246 244 245 243 241 246 244 242 243 242 246 250 251 250 251 250 250 252 253 253 253 253 254 255 256 257 258 260 261 261 262 263 263
263 252 252 250 252 253 250 250 248 250 251 250 251 252 250 247 248 250 256 248 245 242 244 242 243 245 245 244 247 247 246 245 247 248 246 248 252 252 250 251 252 252 252 253 254 254 256 257 258 260 260 260 261 261
268 255 253 250 245 252 248 248 248 251 248 242 248 249 247 244 249 249 254 248 243 243 243 239 242 244 248 245 244 244 240 245 249 249 248 246 248 249 251 250 251 252 252 254 253 254 254 256 257 258 258 259 259 258
258 247 252 246 247 252 247 251 247 247 243 246 245 242 241 246 251 256 250 245 243 243 243 245 246 244 243 244 246 246 247 244 246 249 249 247 248 250 249 250 250 252 251 251 251 252 253 255 257 256 257 257 258 258
254 249 247 247 247 246 246 244 244 244 244 248 244 244 245 250 251 250 244 243 244 244 243 244 245 246 247 245 244 244 243 244 247 248 248 248 249 249 250 249 249 251 252 251 251 252 252 255 256 256 256 256 256 256
250 250 251 248 246 245 244 241 242 246 243 240 244 249 251 252 253 249 248 246 244 243 242 240 241 243 243 244 243 243 243 243 244 244 247 248 249 250 248 249 249 257 253 252 254 255 256 257 256 256 256 255 255 255
250 250 251 247 246 246 245 244 244 242 243 243 248 248 249 249 249 249 250 249 249 249 247 244 243 240 241 242 243 243 245 247 247 246 246 247 248 250 250 250 250 251 252 253 257 260 258 257 257 256 255 254 254 253
248 242 249 247 248 247 243 238 240 237 238 242 242 245 246 247 247 244 246 247 248 248 248 247 245 246 245 246 244 245 246 247 248 250 251 251 252 250 250 251 252 252 252 254 255 256 259 254 255 252 252 251 251 250
232 237 241 239 242 238 235 231 231 233 234 235 234 240 242 242 243 240 243 245 247 246 248 247 246 247 249 249 248 248 248 249 248 250 251 251 251 252 252 251 250 250 252 253 253 253 252 251 250 249 248 247 246 247
235 237 242 243 241 236 233 234 232 237 234 236 239 233 239 240 245 246 246 247 247 247 248 248 247 247 245 243 243 243 248 248 248 248 246 247 243 245 243 243 241 244 247 248 248 248 248 247 247 246 245 244 244 244
230 230 231 235 238 239 235 236 235 236 234 234 235 232 233 237 245 244 239 239 245 249 247 247 243 240 244 243 243 240 240 238 240 249 249 250 247 245 239 239 243 245 247 247 247 247 246 245 245 244 243 243 242 242
Wind_Speed
25 22 21 19 18 20 17 15 12 14 11 6 1 4 7 8 10 6 2 6 3 2 3 4 11 8 5 10 8 7 6 1 2 5 5 5 5 9 5 6 9 12 11 7 4 4 12 9 7 9 1 1 0 5
22 23 21 20 19 17 16 15 12 11 12 9 4 3 6 9 11 10 2 5 5 2 3 2 3 3 11 22 10 13 3 8 8 5 4 3 4 4 5 7 2 7 9 11 13 12 1 14 3 7 1 3 2 3
18 25 22 20 19 20 19 16 15 13 12 10 6 4 5 9 11 11 3 5 4 3 3 2 4 1 2 2 12 9 2 6 5 3 4 3 4 5 8 8 5 6 4 3 3 10 15 10 12 8 4 8 2 4
18 25 21 19 18 18 17 14 14 14 10 7 7 5 5 11 14 11 3 2 4 4 3 6 3 3 2 3 7 3 8 5 6 3 3 4 4 5 5 2 6 4 10 7 6 10 4 9 13 15 10 12 8 6
17 21 17 16 16 17 17 15 12 12 12 8 4 6 6 9 12 6 3 3 3 3 5 3 2 3 2 6 9 9 12 8 3 4 3 5 3 4 0 1 6 8 10 9 7 10 7 9 4 5 13 14 16 13
19 18 16 16 17 15 14 15 15 14 12 5 5 6 7 6 11 0 2 3 4 3 3 2 1 1 1 7 11 10 11 3 3 5 3 3 2 4 5 6 6 13 6 5 8 6 7 2 4 3 8 12 11 13
16 13 14 16 19 19 18 17 14 11 9 6 5 4 6 6 5 3 3 1 11 5 2 3 2 1 1 2 1 4 3 2 3 2 4 4 4 5 3 14 5 8 14 11 7 4 5 6 10 6 9 1 2 7
12 13 17 20 20 19 19 15 12 11 8 5 3 5 8 7 12 3 2 3 8 4 1 3 2 3 3 3 2 0 4 2 2 3 2 3 2 1 8 2 8 7 10 8 11 12 13 1 3 0 1 1 4 9
12 16 18 20 18 17 16 13 11 7 6 2 4 4 2 2 2 3 2 5 1 3 4 4 8 6 5 2 4 2 1 3 2 4 4 6 4 9 4 3 2 7 1 4 10 4 3 7 14 2 3 3 5 9
11 10 14 15 14 13 13 12 10 8 6 7 3 2 3 3 3 3 3 5 3 2 2 4 2 5 5 3 3 5 3 4 5 4 4 5 5 5 5 4 5 6 7 9 4 3 5 3 3 5 6 7 8 6
12 11 9 9 10 11 11 11 11 9 7 2 2 3 1 5 1 2 4 7 5 4 5 3 4 5 2 4 4 2 5 5 5 6 8 5 6 4 7 7 7 7 6 6 6 6 5 5 8 9 9 6 7 9
4 4 5 7 8 9 10 10 11 5 3 4 3 0 1 3 3 4 3 2 4 5 3 6 5 3 3 2 3 5 5 4 6 7 5 5 3 4 6 6 8 8 8 6 6 7 7 7 6 7 7 7 7 8
2 3 6 7 9 11 12 13 12 12 9 2 1 2 3 1 4 5 5 3 3 3 4 3 4 4 3 4 3 4 6 7 8 6 4 1 3 5 6 6 6 7 6 6 6 7 7 8 7 6 8 7 9 9
2 2 6 9 10 12 13 13 15 13 4 3 5 5 4 3 4 4 3 3 1 1 3 2 3 3 3 5 3 6 3 5 7 9 7 3 3 2 3 4 4 7 8 7 7 7 8 9 8 6 6 7 8 9
3 3 1 3 5 9 13 15 16 3 3 2 3 4 5 1 0 2 1 2 2 1 2 3 0 2 2 3 2 3 5 4 2 3 3 3 3 2 4 4 5 6 6 6 6 7 7 7 7 7 8 8 7 8
5 5 4 7 5 9 13 11 4 3 2 3 2 2 1 1 0 1 1 2 2 1 1 1 2 4 2 2 3 2 2 1 3 3 3 3 3 4 4 4 4 4 5 5 5 5 5 6 6 5 5 7 7 7
3 3 6 12 11 4 17 4 3 3 4 5 2 1 0 3 2 2 1 2 2 1 2 1 3 3 3 3 3 2 2 4 6 5 4 4 2 2 3 5 6 6 5 4 4 4 4 5 5 5 8 9 7 6
2 1 10 15 13 6 2 3 3 3 3 1 2 1 1 0 3 3 3 4 3 1 2 2 3 3 3 3 2 3 4 3 5 5 5 4 3 2 2 3 4 6 6 5 4 5 4 6 7 6 6 7 6 6
5 4 11 11 5 4 3 3 3 4 2 1 1 0 1 3 3 3 3 4 2 2 2 1 4 3 3 1 3 2 4 3 4 3 4 4 5 5 6 6 5 6 6 7 7 6 6 5 4 5 5 5 5 5
17 15 10 15 7 4 5 3 3 4 2 1 2 2 2 2 2 2 3 4 2 2 5 4 2 2 2 2 1 3 3 3 3 4 3 2 4 5 6 5 4 5 4 5 4 6 6 5 6 6 5 4 4 6
8 8 10 5 5 8 6 2 4 2 2 3 1 2 2 3 4 5 4 5 4 2 3 1 1 1 2 2 2 1 3 2 2 1 2 3 1 2 2 3 3 3 4 5 6 6 5 5 6 6 6 5 5 6
3 9 4 6 6 5 6 2 2 1 3 2 3 3 4 3 4 4 5 4 3 1 2 2 2 2 2 2 2 3 2 2 3 2 2 1 2 1 1 2 3 3 3 4 4 4 5 5 6 6 6 5 5 6
5 6 6 6 7 7 2 2 4 6 5 0 2 4 3 3 2 3 2 1 2 1 1 1 2 1 3 1 2 2 2 2 2 1 1 1 1 2 2 1 1 2 2 2 3 4 5 7 6 5 5 6 6 6
11 9 7 5 4 2 2 6 3 4 4 5 4 2 2 2 5 4 3 2 1 0 2 3 2 3 2 2 2 2 1 1 2 1 0 0 2 1 1 0 1 2 1 2 3 3 3 5 7 7 7 6 7 6
4 6 5 4 3 5 5 5 5 4 3 1 3 1 2 2 2 0 4 3 1 2 3 2 2 1 3 2 1 2 3 2 3 3 0 1 1 1 1 1 1 1 2 3 4 4 5 5 5 6 6 6 6 7
4 5 2 3 2 4 4 4 2 4 3 2 2 2 2 3 2 6 4 3 3 4 5 6 5 3 2 3 4 3 4 4 3 3 2 3 2 3 2 2 1 1 0 1 2 4 4 6 5 5 5 7 7 6
5 2 1 1 3 4 4 3 3 4 3 5 4 2 3 3 6 5 2 3 3 4 4 4 5 4 4 4 3 3 2 4 3 2 2 2 2 2 3 3 2 3 3 2 1 1 2 3 3 3 4 5 6 5
3 2 4 2 3 1 6 2 4 6 4 2 3 4 7 8 5 3 4 3 3 3 3 2 2 3 3 3 2 2 1 3 3 2 2 2 3 3 3 2 3 5 2 2 3 3 3 3 4 5 5 6 6 6
3 2 1 3 2 2 1 4 4 2 2 3 3 3 3 2 2 2 2 3 4 4 3 2 0 2 1 0 1 2 3 3 5 5 4 2 0 3 2 1 1 1 1 3 6 4 6 6 6 6 7 7 6 6
1 3 3 1 3 2 2 2 2 2 1 1 1 3 3 3 3 1 2 4 5 4 4 3 4 4 4 4 2 2 1 1 2 3 3 3 3 2 1 0 1 1 1 1 3 7 11 7 8 5 7 6 6 6
1 2 4 3 2 3 2 2 2 1 2 2 2 2 4 4 5 3 3 3 3 4 5 4 3 4 5 5 4 3 1 1 1 2 2 3 2 2 1 1 1 0 2 4 5 6 7 7 7 8 8 8 7 6
3 2 4 3 1 3 3 3 1 1 3 2 2 2 4 3 4 3 4 5 5 4 5 5 5 5 4 2 3 2 1 5 4 3 3 2 1 0 1 1 1 2 4 6 6 7 8 9 8 8 8 8 7 6
2 2 2 3 3 2 2 3 4 4 2 2 3 2 3 3 7 4 2 1 4 6 7 6 3 3 5 5 5 3 2 2 3 4 4 4 4 4 3 2 3 5 8 7 6 8 9 11 9 8 8 8 7 6
Wind_Direction
231 217 222 220 221 214 215 214 214 208 187 189 266 299 290 309 298 309 141 143 136 11 289 226 181 160 131 171 157 144 112 225 136 196 178 181 175 205 170 156 180 166 159 183 142 207 262 135 103 194 255 355 192 185
263 212 212 207 198 207 211 201 195 212 203 189 194 326 297 295 316 312 191 140 130 155 267 305 300 281 191 182 138 178 157 157 164 166 189 156 171 171 159 204 152 217 197 178 188 204 110 197 259 219 13 314 247 195
268 212 204 203 203 203 200 205 203 201 201 200 204 243 287 296 276 279 210 143 114 113 303 337 226 283 47 166 150 132 220 156 189 188 144 179 202 156 173 220 183 233 172 215 127 237 231 214 252 258 234 225 227 244
250 213 200 198 201 206 199 200 200 194 193 217 228 227 283 292 291 276 192 174 115 128 204 249 92 217 172 148 172 110 141 129 116 134 153 165 204 209 199 146 202 156 146 167 267 282 291 238 226 237 235 226 235 217
213 201 187 190 197 203 194 183 175 169 170 202 178 227 284 296 310 282 209 189 152 170 176 220 345 187 166 169 159 140 149 128 141 145 161 198 154 141 202 348 216 187 175 184 209 217 199 233 172 205 219 223 224 210
197 180 183 191 194 184 166 166 172 168 172 192 215 220 286 300 315 23 76 220 162 144 120 160 306 104 176 178 153 152 161 138 136 149 178 211 208 158 190 230 200 195 202 198 222 207 210 220 273 194 223 235 225 207
181 172 186 180 172 161 156 166 171 162 172 196 229 219 301 269 293 220 198 169 160 111 163 143 227 77 180 97 33 106 82 148 131 161 189 165 200 175 249 247 163 204 217 222 232 121 300 197 249 214 215 258 263 232
179 183 176 171 170 163 159 159 166 171 178 199 226 250 298 318 297 237 245 231 168 105 151 194 152 184 206 147 127 29 125 130 148 159 139 171 116 182 245 243 202 196 210 226 229 211 237 360 343 264 121 160 233 244
156 161 171 165 164 161 161 167 172 172 159 208 73 324 322 159 226 243 11 144 64 167 192 184 162 185 164 135 104 65 123 149 110 195 193 162 155 217 228 207 154 29 37 319 312 274 219 228 263 300 211 236 254 263
124 151 164 161 159 165 169 170 172 172 181 106 95 63 238 209 265 228 144 176 175 222 222 210 118 160 164 140 136 129 183 169 179 208 129 211 241 94 45 13 13 2 5 348 319 320 12 351 9 343 254 231 228 236
131 143 156 167 174 171 177 178 183 145 83 88 157 224 248 284 210 201 207 182 178 192 179 165 171 146 220 150 125 206 166 168 192 186 185 203 241 123 8 0 1 352 9 5 335 329 332 311 308 317 313 286 250 259
113 140 173 193 197 197 189 195 190 114 155 162 171 78 266 210 203 202 211 159 212 200 171 161 160 140 160 139 149 178 184 159 220 146 190 222 102 34 5 357 345 354 356 356 355 344 339 329 327 301 299 332 345 323
38 195 204 198 201 206 206 205 191 147 124 63 32 257 233 168 178 197 193 210 180 166 170 164 140 133 137 201 155 173 184 200 126 175 215 59 86 33 355 342 336 334 353 12 10 356 340 336 345 353 337 337 327 321
40 286 250 236 222 215 208 205 195 144 102 196 199 238 213 166 225 200 191 143 129 126 151 176 138 163 149 174 158 188 180 137 200 186 197 99 82 57 354 337 341 337 345 351 2 355 360 359 349 356 8 349 339 343
329 353 208 290 265 236 216 209 187 104 132 208 196 231 217 271 327 183 265 126 207 208 180 140 106 142 173 170 218 154 169 199 10 112 80 101 95 40 9 349 332 344 345 350 349 348 350 352 353 344 352 352 359 346
278 314 223 215 254 249 217 181 111 91 92 134 152 187 205 348 248 355 176 96 32 309 107 43 174 166 136 110 88 71 59 85 118 104 92 81 44 14 353 327 315 328 346 349 347 349 341 351 356 344 330 357 353 358
317 213 293 276 252 198 128 100 114 135 157 169 195 141 92 271 97 90 39 46 323 266 92 75 51 43 118 98 114 46 110 110 135 125 119 116 101 14 342 330 331 343 342 343 341 354 351 338 335 19 17 351 345 358
167 290 346 117 113 98 65 47 99 101 96 108 166 117 165 334 96 78 49 7 341 86 129 129 124 68 73 106 120 124 116 92 84 116 126 119 105 74 40 2 340 354 343 334 336 341 2 15 17 10 341 341 334 5
136 116 42 39 72 107 92 50 25 102 91 93 112 154 79 82 67 47 29 1 315 325 114 78 89 119 150 59 92 106 128 131 141 133 119 78 59 36 28 14 4 14 359 352 357 9 354 3 359 349 344 355 7 1
86 51 57 42 35 72 69 27 21 85 93 82 53 53 58 52 35 20 14 12 3 52 44 53 88 111 95 114 41 90 95 95 120 118 118 80 45 39 30 6 359 357 352 349 354 15 3 359 5 349 332 334 17 16
32 359 20 63 50 60 78 352 57 80 131 80 334 37 53 18 26 9 344 337 52 58 117 195 144 104 15 38 41 81 85 93 108 70 116 135 37 15 41 29 3 13 19 14 10 355 6 352 318 307 320 1 19 27
285 9 52 14 71 45 81 4 102 309 68 158 54 38 34 25 358 357 303 32 64 118 148 155 167 138 114 98 31 31 44 75 78 89 82 73 149 155 107 22 21 19 31 21 348 335 332 330 324 322 340 352 26 38
36 38 41 23 73 41 293 15 72 3 95 318 32 64 16 354 294 327 20 243 256 191 146 130 142 98 109 12 79 57 44 116 120 127 157 165 219 225 219 175 97 50 33 7 351 343 338 324 331 337 347 15 32 40
32 49 49 49 39 176 6 23 30 50 38 35 59 55 327 284 328 44 247 247 216 156 153 169 150 107 62 37 138 179 202 120 125 124 185 82 165 131 31 142 91 43 10 310 342 336 343 345 351 12 20 13 29 48
87 355 55 5 339 63 46 18 357 57 111 248 101 295 281 352 81 331 231 262 221 210 173 154 143 157 144 147 173 226 236 184 150 127 266 195 132 122 81 59 210 253 339 16 22 356 341 10 10 28 30 40 53 51
89 323 57 185 297 112 185 121 168 170 129 92 217 275 19 86 101 237 229 218 211 189 183 183 164 150 213 205 152 179 192 186 140 128 231 175 130 122 137 129 144 238 245 12 352 353 348 8 21 27 41 40 56 69
122 231 344 215 119 116 73 40 73 100 137 174 194 127 95 151 238 251 270 219 200 214 191 167 159 160 170 171 225 241 180 183 198 175 116 165 198 182 154 163 223 247 306 312 316 268 298 337 65 73 73 62 56 61
108 150 158 189 71 14 129 107 147 186 198 228 89 178 179 193 233 221 199 208 172 130 122 143 151 130 144 185 184 154 181 186 198 213 259 242 225 204 197 224 237 288 313 275 269 261 244 147 115 108 100 88 75 62
74 19 105 68 74 54 138 159 198 227 192 137 166 223 250 251 236 182 198 162 135 129 129 141 207 123 91 64 144 172 170 158 135 134 166 205 260 254 217 268 322 319 336 319 298 135 115 109 105 104 96 91 86 78
138 354 91 67 123 196 230 163 197 272 304 202 253 304 292 269 249 293 122 137 162 186 185 169 148 152 161 155 192 302 297 191 191 162 172 198 204 149 140 47 1 11 343 237 87 73 85 80 92 76 81 80 79 78
348 33 73 62 161 252 239 296 290 303 18 1 340 173 251 301 303 243 191 181 141 131 137 148 166 189 165 179 173 162 235 232 173 118 85 85 97 107 90 75 63 194 178 140 118 112 113 100 100 100 95 90 81 88
17 96 124 118 266 297 32 43 29 51 333 18 276 332 317 353 276 250 188 143 145 167 195 161 163 198 192 147 116 100 107 136 148 153 142 123 109 159 102 99 81 113 100 93 96 107 109 110 109 110 114 115 118 116
55 52 63 83 44 9 319 78 27 337 358 316 272 217 232 203 244 265 306 27 173 177 179 184 172 156 155 155 159 159 149 140 173 186 188 212 163 151 139 127 113 109 110 108 106 117 115 117 117 121 120 116 111 108